#timestamp,LO_Frequency,Hit 
1502118015.0,286046993.0,N
1502118015.9,286046993.0,N
1502118035.7,286046992.4,N
1502118055.6,286046993.3,N
1502118075.4,286046996.0,N
1502118095.2,286046996.3,N
1502118115.1,286046997.8,N
1502118116.0,286046997.8,N
1502118135.8,286047001.0,N
1502118155.6,286047005.7,N
1502118175.5,286047007.6,N
1502118195.3,286047004.5,N
1502118215.1,286047007.0,N
1502118235.9,286047010.8,N
1502118255.7,286047010.1,N
1502118275.5,286047011.5,N
1502118295.4,286047009.4,N
1502118315.2,286047007.9,N
1502118335.0,286047011.5,N
1502118335.9,286047011.5,N
1502118355.8,286047009.9,N
1502118375.6,286047009.0,N
1502118395.4,286047007.1,N
1502118415.2,286047005.4,N
1502118435.1,286047001.6,N
1502118436.0,286047001.6,N
1502118455.8,286046999.4,N
1502118475.6,286046995.5,N
1502118495.5,286046994.4,N
1502118515.3,286046993.9,N
1502118535.1,286046991.9,N
1502118555.9,286046992.2,N
1502118575.7,286046992.0,N
1502118595.5,286046995.8,N
1502118615.4,286046991.9,N
1502118635.2,286046993.7,N
1502118655.0,286046990.1,N
1502118655.9,286046990.1,N
1502118675.8,286046992.1,N
1502118695.6,286046996.0,N
1502118715.4,286046999.3,N
1502118735.3,286047000.4,N
1502118755.1,286047001.1,N
1502118756.0,286047001.1,N
1502118775.8,286046997.5,N
1502118795.7,286046992.6,N
1502118815.5,286046992.6,N
1502118835.3,286046988.6,N
1502118855.2,286046988.5,N
1502118875.9,286046990.8,N
1502118895.7,286046987.8,N
1502118915.6,286046984.1,N
1502118935.4,286046985.6,N
1502118955.2,286046986.7,N
1502118975.0,286046986.8,N
1502118975.9,286046986.8,N
1502118995.8,286046982.1,P
1502119015.6,286046985.4,N
1502119035.5,286046989.8,N
1502119055.3,286046983.8,P
1502119075.1,286046990.1,P
1502119095.9,286046989.0,P
1502119115.7,286046990.8,P
1502119135.5,286047003.5,N
1502119155.4,286047007.5,N
1502119175.2,286047010.0,N
1502119195.0,286047014.8,N
1502119195.9,286047014.8,N
1502119215.8,286047018.0,N
1502119235.6,286047020.7,N
1502119255.4,286047022.2,N
1502119275.3,286047025.1,N
1502119295.1,286047023.9,N
1502119296.0,286047023.9,N
1502119315.8,286047027.4,N
1502119335.6,286047033.0,N
1502119355.5,286047033.0,N
1502119375.3,286047034.6,N
1502119395.1,286047039.5,N
1502119415.9,286047038.7,N
1502119435.7,286047041.3,N
1502119455.5,286047046.4,P
1502119475.4,286047031.0,N
1502119495.2,286047033.0,P
1502119515.1,286047036.4,P
1502119516.0,286047036.4,P
1502119535.8,286047003.7,N
1502119555.6,286047003.7,N
1502119575.4,286047001.6,N
1502119595.3,286046997.4,N
1502119615.1,286046994.9,N
1502119635.8,286046997.5,N
1502119655.7,286046997.4,N
1502119675.5,286046994.7,N
1502119695.3,286046992.3,N
1502119715.2,286046989.2,N
1502119735.9,286046983.3,N
1502119755.7,286046981.0,N
1502119775.6,286046981.1,N
1502119795.4,286046979.4,N
1502119815.2,286046978.0,N
1502119835.0,286046974.4,N
1502119836.0,286046974.4,N
1502119855.8,286046976.3,N
1502119875.6,286046972.5,N
1502119895.4,286046970.7,N
1502119915.3,286046968.0,N
1502119935.1,286046969.9,N
1502119955.8,286046969.5,N
1502119975.7,286046966.4,N
1502119995.5,286046962.5,N
1502120015.3,286046958.4,N
1502120035.2,286046960.1,N
1502120055.9,286046959.3,N
1502120075.7,286046959.4,N
1502120095.6,286046960.6,N
1502120115.4,286046962.2,N
1502120135.2,286046962.4,N
1502120155.1,286046961.4,N
1502120156.0,286046961.4,N
1502120175.8,286046964.8,N
1502120195.6,286046963.3,P
1502120215.5,286046993.0,N
1502120235.3,286046994.8,N
1502120255.1,286046993.4,N
1502120275.9,286046993.7,N
1502120295.7,286046996.7,N
1502120315.5,286046996.1,N
1502120335.4,286046987.7,N
1502120355.2,286046985.9,N
1502120375.0,286046986.0,N
1502120375.9,286046986.0,N
1502120395.8,286046982.6,N
1502120415.6,286046983.5,N
1502120435.4,286046985.8,N
1502120455.2,286046983.9,N
1502120475.1,286046987.9,N
1502120476.0,286046987.9,N
1502120495.8,286046990.1,N
1502120515.6,286046994.8,N
1502120535.5,286046994.7,N
1502120555.3,286046994.9,N
1502120575.2,286046995.4,N
1502120595.1,286046996.5,N
1502120596.0,286046996.5,N
1502120615.8,286046998.3,N
1502120635.6,286046995.0,N
1502120655.5,286046996.7,N
1502120675.3,286046999.8,N
1502120695.1,286046995.0,N
1502120715.9,286046994.3,N
1502120735.7,286046993.1,N
1502120755.5,286046991.2,N
1502120775.4,286046989.9,N
1502120795.2,286046988.4,N
1502120815.0,286046984.4,P
1502120815.9,286046984.4,P
1502120835.8,286046991.0,N
1502120855.6,286046993.0,N
1502120875.4,286046993.3,N
1502120895.3,286046993.8,N
1502120915.1,286046993.5,N
1502120916.0,286046993.5,N
1502120935.8,286046995.5,N
1502120955.7,286046995.7,N
1502120975.5,286046997.5,N
1502120995.3,286046998.9,N
1502121015.2,286047004.4,N
1502121035.9,286046999.7,N
1502121055.7,286047002.4,N
1502121075.5,286047002.8,N
1502121095.4,286047000.4,N
1502121115.2,286047002.2,N
1502121135.0,286047004.0,N
1502121135.9,286047004.0,N
1502121155.8,286047007.5,N
1502121175.6,286047010.8,N
1502121195.4,286047010.1,N
1502121215.3,286047010.9,N
1502121235.1,286047012.4,N
1502121236.0,286047012.4,N
1502121255.8,286047011.5,N
1502121275.7,286047014.0,N
1502121295.5,286047011.7,N
1502121315.3,286047013.1,N
1502121335.2,286047012.0,N
1502121355.9,286047015.6,N
1502121375.7,286047016.0,N
1502121395.5,286047015.7,N
1502121415.4,286047014.7,N
1502121435.2,286047017.9,N
1502121455.0,286047018.5,N
1502121455.9,286047018.5,N
1502121475.8,286047018.1,N
1502121495.6,286047017.6,N
1502121515.5,286047022.0,P
1502121535.3,286047011.3,N
1502121555.2,286047011.0,N
1502121575.9,286047011.3,N
1502121595.7,286047011.2,N
